Location: Unspecified
(0.0000°N, 0.0000°E)
Time: 16:57:10
(UTC+00:00)

deb Delta 126 - Pass Details

Date: 19 February 2026
Orbit: 1501 x 2092 km, 101.9° (Epoch: 8 March)

Event Time Altitude Azimuth Distance (km) Brightness Sun altitude
Rises 03:22:52 0° 22° (NNE) 4,717 ? -41.7°
Reaches altitude 10° 03:25:38 10° 25° (NNE) 3,780 ? -41.1°
Maximum altitude 03:34:29 68° 107° (ESE) 1,800 ? -38.9°
Drops below altitude 10° 03:44:23 10° 188° (S) 4,207 ? -36.5°
Sets 03:47:37 0° 190° (S) 5,277 ? -35.7°
